Sde-Haifa Haifa, Israel

12:00 AM IST on February 08, 2016 (GMT +0200)
Haifa

Weather History for LLHA - February, 2013

Change the Weather History Date:

Friday, February 8, 2013

  Actual Average Record
Temperature  
Mean Temperature 64 °F -  
Max Temperature 71 °F - - ()
Min Temperature 57 °F - - ()
Degree Days  
Heating Degree Days 1    
Growing Degree Days 14 (Base 50)    
Moisture  
Dew Point 44 °F    
Average Humidity 46    
Maximum Humidity 59    
Minimum Humidity 38    
Precipitation  
Precipitation 0.00 in - - ()
Sea Level Pressure  
Sea Level Pressure 29.97 in    
Wind  
Wind Speed 13 mph ()    
Max Wind Speed 20 mph    
Max Gust Speed 31 mph    
Visibility 6.2 miles    
Events      
T = Trace of Precipitation, MM = Missing Value Source: Averaged Metar Reports

Daily Weather History Graph

Daily Weather History Graph

Search for Another Location

Airport or City:

Trip Planner

Search our weather history database for the weather conditions in past years. The results will help you decide how hot, cold, wet, or windy it might be!

Date:

Astronomy

Feb. 08, 2013 Rise Set
Actual Time 6:29 AM IST 5:19 PM IST
Civil Twilight 6:04 AM IST 5:44 PM IST
Nautical Twilight 5:34 AM IST 6:13 PM IST
Astronomical Twilight 5:05 AM IST 6:42 PM IST
Moon 4:38 AM IST (2/8) 3:30 PM IST (2/8)
Length of Visible Light 11h 40m
Length of Day
10h 49m
Waning Crescent, 5% of the Moon is Illuminated
Feb 8
Waning Crescent
Feb 10
New
Feb 17
First Quarter
Feb 25
Full
Mar 4
Last Quarter

Hourly Weather History & Observations

Time (IST) Temp. Dew Point Humidity Pressure Visibility Wind Dir Wind Speed Gust Speed Precip Events Conditions
6:20 AM 57.2 °F 42.8 °F 59% 30.04 in 6.2 mi SE 11.5 mph - N/A   Partly Cloudy
6:50 AM 57.2 °F 42.8 °F 59% 30.04 in 6.2 mi SE 11.5 mph - N/A   Partly Cloudy
7:20 AM 57.2 °F 42.8 °F 59% 30.04 in 6.2 mi SE 12.7 mph - N/A   Partly Cloudy
7:50 AM 57.2 °F 42.8 °F 59% 30.04 in 6.2 mi SE 15.0 mph - N/A   Partly Cloudy
8:20 AM 59.0 °F 42.8 °F 55% 30.01 in 6.2 mi SE 16.1 mph - N/A   Partly Cloudy
9:20 AM 62.6 °F 44.6 °F 52% 30.01 in 6.2 mi SE 15.0 mph - N/A   Partly Cloudy
9:50 AM 62.6 °F 42.8 °F 48% 30.01 in 6.2 mi SE 19.6 mph - N/A   Partly Cloudy
10:20 AM 64.4 °F 42.8 °F 45% 30.01 in 6.2 mi ESE 18.4 mph - N/A   Partly Cloudy
10:50 AM 66.2 °F 44.6 °F 46% 29.98 in 6.2 mi ESE 17.3 mph - N/A   Partly Cloudy
11:20 AM 68.0 °F 44.6 °F 43% 29.98 in 6.2 mi ESE 17.3 mph - N/A   Partly Cloudy
11:50 AM 69.8 °F 44.6 °F 40% 29.98 in 6.2 mi SE 19.6 mph 31.1 mph N/A   Partly Cloudy
12:20 PM 69.8 °F 42.8 °F 38% 29.95 in 6.2 mi SE 19.6 mph 31.1 mph N/A   Partly Cloudy
12:50 PM 69.8 °F 42.8 °F 38% 29.95 in 6.2 mi SE 19.6 mph - N/A   Partly Cloudy
1:20 PM 69.8 °F 44.6 °F 40% 29.95 in 6.2 mi SE 17.3 mph - N/A   Partly Cloudy
1:50 PM 69.8 °F 44.6 °F 40% 29.92 in 6.2 mi SE 16.1 mph - N/A   Partly Cloudy
2:50 PM 71.6 °F 44.6 °F 38% 29.92 in - ESE 17.3 mph - N/A   Clear
3:20 PM 71.6 °F 44.6 °F 38% 29.92 in - SE 13.8 mph - N/A   Clear
3:50 PM 71.6 °F 46.4 °F 41% 29.92 in - ESE 12.7 mph - N/A   Clear
4:20 PM 71.6 °F 46.4 °F 41% 29.92 in - ESE 9.2 mph - N/A   Clear
4:50 PM 69.8 °F 46.4 °F 43% 29.92 in - ESE 9.2 mph - N/A   Clear
5:20 PM 68.0 °F 46.4 °F 46% 29.92 in - SE 5.8 mph - N/A   Clear
5:50 PM 68.0 °F 46.4 °F 46% 29.92 in - SE 8.1 mph - N/A   Clear
6:20 PM 66.2 °F 46.4 °F 49% 29.95 in - SSE 6.9 mph - N/A   Clear
6:50 PM 66.2 °F 46.4 °F 49% 29.95 in - SSE 8.1 mph - N/A   Clear